Skip Page Navigation
NASA JPL Caltech
NASA Logo - Jet Propulsion Laboratory + View the NASA Portal
+ Near-Earth Object (NEO) Program
Search JPL
JPL Home Earth Solar System Stars & Galaxies Technology
JPL Solar System Dynamics
BODIES ORBITS EPHEMERIDES TOOLS PHYSICAL DATA DISCOVERY FAQ SITE MAP
JPL Small-Body Database Browser
Search: [ help ]  
43757 (1984 DB1)
Classification: Main-belt Asteroid          SPK-ID: 2043757
Ephemeris | Orbit Diagram | Orbital Elements | Physical Parameters | Discovery Circumstances | Close-Approach Data ]

[ show orbit diagram ]
Orbital Elements at Epoch 2457000.5 (2014-Dec-09.0) TDB
Reference: JPL 9 (heliocentric ecliptic J2000)
 Element Value Uncertainty (1-sigma)   Units 
e .2093240260260285 1.0184e-07  
a 3.075865404606706 3.3112e-08 AU
q 2.432012874600251 3.1683e-07 AU
i 26.26747160577607 1.1836e-05 deg
node 168.507553391146 1.5492e-05 deg
peri 353.2371224137241 2.2495e-05 deg
M 248.8410030025934 1.9063e-05 deg
tp 2457608.903265942608
(2016-Aug-08.40326594)
0.00010985 JED
period 1970.377402239865
5.39
3.1817e-05
8.711e-08
d
yr
n .182706114874624 2.9503e-09 deg/d
Q 3.719717934613161 4.0044e-08 AU
  Orbit Determination Parameters
   # obs. used (total)      526  
   data-arc span      11157 days (30.55 yr)  
   first obs. used      1984-02-27  
   last obs. used      2014-09-14  
   planetary ephem.      DE431  
   SB-pert. ephem.      SB431-BIG16  
   condition code      0  
   fit RMS      .57019  
   data source      ORB  
   producer      Otto Matic  
   solution date      2014-Oct-09 15:31:06  

Additional Information
 Earth MOID = 1.44177 AU 
 T_jup = 3.040 
[ show covariance matrix ]

Ephemeris | Orbit Diagram | Orbital Elements | Physical Parameters | Discovery Circumstances | Close-Approach Data ]

Physical Parameter Table
Parameter Symbol Value Units Sigma Reference Notes
absolute magnitude H 13.4 mag n/a MPO267850  

43757 (1984 DB1)          Discovered 1984-Feb-27 by Debehogne, H. at La Silla (809)
Reference: 20020822/Numbers.arcLast Updated: 2004-04-19

[ show close-approach data ]
Alternate Designations
 1984 DB1 = 2000 JP3 
Ephemeris | Orbit Diagram | Orbital Elements | Physical Parameters | Discovery Circumstances | Close-Approach Data ]
ABOUT SSD CREDITS/AWARDS PRIVACY/COPYRIGHT GLOSSARY LINKS
FirstGov 2014-Oct-24 15:25 UT
(server date/time)  
NASA Home Page
Site Manager:   Donald K. Yeomans
Webmaster  Alan B. Chamberlin